www.pogodaiklimat.ru

Погода и климат >> Архив погоды >> Украина >> Коломыя


ПОГОДА в Коломые

  • Прогноз погоды в Коломые
  • Монитор погоды в Коломые

АРХИВ ПОГОДЫ в Коломые

Время (UTC), дата Ветер
(напр.,м/с)
 
Видим.   Явления Облачность Т
(С)
Тd
(С)
f
(%)
Тe
(С)
Тes
(С)
Комфортность P
(гПа)
Po
(гПа)
Тmin
(С)
Tmax
(С)
R
(мм)
R24
(мм)
S
(см)
15 18.08 З 2 20 км 6/1 1000 м
[Cu hum Ac trans Cc]
+26.9 +12.5 41 +28 +30 жарко 1014.0 980.2
18 18.08 ЮЗ 1 20 км 1/1 600 м
[Sc diur, vesp]
+22.0 +12.8 56 +25 +25 комфорт 1015.0 980.7 +27.4
21 18.08 штиль 0 10 км ясно +15.0 +13.5 91 +15 +15 1017.0 981.8
00 19.08 штиль 0 10 км 1/0
[Ci fib]
+13.2 +12.1 93 +13 +13 1017.0 981.5
03 19.08 штиль 0 10 км 9/9 1000 м
[Sc]
+15.0 +12.9 87 +15 +15 1018.0 982.7
06 19.08 ЮЗ 1 20 км 8/8 1000 м
[Sc]
+20.2 +14.3 69 +24 +24 комфорт 1018.0 983.4 +12.8
09 19.08 СЗ 1 50 км 1/1 1000 м
[Cu hum]
+27.1 +15.1 48 +30 +45 душно 1017.0 983.2
12 19.08 СЗ 2 50 км 4/3 1000 м
[Cu hum Ci fib]
+28.9 +15.4 44 +32 +40 душно 1016.0 982.4
15 19.08 В 1 20 км 3/3 1000 м
[Cu hum]
+29.3 +15.0 42 +32 +34 душно 1017.0 983.4
18 19.08 штиль 0 20 км 3/1 600 м
[Sc diur, vesp Ac lent]
+23.2 +18.3 74 +29 +29 душно 1018.0 983.8 +30.5
21 19.08 штиль 0 10 км ясно +17.3 +15.6 90 +17 +17 1019.0 984.0
00 20.08 штиль 0 10 км ясно +15.3 +14.3 94 +15 +15 1019.0 983.7
03 20.08 штиль 0 4000 м дымка ясно +13.5 +13.0 97 +13 +13 1020.0 984.5
06 20.08 штиль 0 20 км 4/0
[Ci fib]
+18.8 +16.4 86 +20 +24 1021.0 986.1 +13.5
09 20.08 ЮВ 1 20 км ясно +27.0 +17.2 55 +31 +46 душно 1020.0 986.1
12 20.08 В 2 20 км 3/0
[Ci sp]
+29.4 +15.1 42 +32 +43 душно 1019.5 985.8
15 20.08 ЮВ 1 20 км 8/0
[Ci sp]
+30.0 +16.4 44 +33 +33 душно 1019.0 985.5
18 20.08 штиль 0 20 км 9/6 600 м
[Sc Ac lent Ci sp]
+23.4 +19.7 80 +30 +30 очень
душно
1020.0 985.7 +30.4
21 20.08 штиль 0 10 км ясно +18.7 +17.2 91 +20 +20 1021.0 986.1
00 21.08 штиль 0 10 км ясно +14.8 +13.8 94 +14 +14 1021.0 985.6
03 21.08 штиль 0 1200 м дымка ясно +13.7 +13.2 97 +13 +13 1021.0 985.5
06 21.08 штиль 0 500 м туман ?/? +17.1 +16.5 96 +17 +22 1021.0 985.9 +13.7
09 21.08 ЮЗ 1 50 км {туман} 1/1 600 м
[Cu hum]
+27.2 +17.4 55 +31 +46 душно 1020.0 986.1
12 21.08 ЮЗ 2 50 км 3/3 600 м
[Cu hum]
+31.0 +15.0 38 +33 +42 душно 1013.0 979.8
15 21.08 штиль 0 50 км ?/? +28.0 +17.0 51 +32 +32 душно 1018.8 984.9
18 21.08 СЗ 5 20 км 9/6 600 м
[Sc Ac lent]
+21.6 +17.0 75 +26 +26 душно 1022.0 987.4 +31.0
21 21.08 СЗ 5 10 км 10/10 600 м
[Cb cap]
+18.4 +16.7 90 +19 +19 1025.0 989.9
00 22.08 СЗ 3 10 км 10/10 600 м
[Sc]
+16.8 +15.8 94 +17 +17 1026.0 990.7
03 22.08 СЗ 2 10 км 10/10 600 м
[Sc]
+15.6 +15.0 96 +15 +15 1027.0 991.5
06 22.08 СЗ 4 20 км 10/10 600 м
[Sc]
+15.9 +12.5 80 +15 +15 1027.0 991.5 +15.6
09 22.08 СЗ 3 20 км 10/10 600 м
[Cb cap]
+16.9 +13.0 78 +17 +17 1028.0 992.6
12 22.08 З 3 20 км 8/6 1000 м
[Cu Sc Ac cuf]
+21.3 +14.0 63 +24 +24 комфорт 1027.0 992.2
15 22.08 ЮЗ 3 10 км 3 балла +23.1 +14.4 58 +27 +28 душно 1025.0 990.5
18 22.08 З 1 20 км 1/0
[Ci fib]
+19.0 +14.9 77 +21 +21 комфорт 1026.0 991.0 +23.7
21 22.08 З 1 10 км ясно +15.5 +13.9 90 +16 +16 1027.0 991.5
00 23.08 З 1 10 км 3/0
[Ci fib]
+14.3 +13.3 94 +15 +15 1027.0 991.3
03 23.08 штиль 0 4000 м дымка 3/0
[Ci fib]
+12.3 +11.4 94 +12 +12 1027.0 991.1
06 23.08 СЗ 1 20 км 3/0
[Ci fib]
+15.5 +13.2 86 +16 +19 1028.0 992.4 +11.7
09 23.08 В 1 10 км 3 балла +21.7 +14.1 62 +25 +35 комфорт 1027.0 992.2
12 23.08 СВ 1 20 км 4/3 1000 м
[Cu hum Ci fib]
+24.7 +14.2 52 +27 +37 жарко 1025.0 990.6
15 23.08 СВ 2 20 км 8/3 600 м
[Sc diur, vesp Ci fib]
+25.1 +13.0 47 +27 +27 жарко 1025.0 990.7
18 23.08 ЮВ 1 20 км 8/0
[Ac lent Ci fib]
+19.9 +14.5 71 +23 +23 комфорт 1026.0 991.1 +25.7
21 23.08 штиль 0 10 км 4/0
[Ci fib]
+15.0 +11.4 79 +15 +15 1027.0 991.4
00 24.08 штиль 0 10 км ясно +13.2 +11.9 92 +13 +13 1027.0 991.2
03 24.08 штиль 0 10 км 3/0
[Ac lent]
+11.0 +10.4 96 +10 +10 1027.0 990.9
06 24.08 штиль 0 20 км 6/0
[Ci fib]
+15.2 +12.9 86 +15 +17 1027.0 991.4 +10.4
09 24.08 ЮВ 2 10 км 10 баллов +22.7 +13.5 56 +26 +26 жарко 1025.0 990.4
12 24.08 СВ 2 20 км 10/1 600 м
[Cu med, cong Ci sp]
+25.5 +12.3 44 +27 +27 жарко 1023.0 988.8
15 24.08 В 1 10 км 6 баллов +26.4 +13.2 44 +28 +30 жарко 1023.0 988.9
18 24.08 штиль 0 20 км 3/0
[Ci fib]
+19.7 +16.1 80 +22 +22 комфорт 1024.0 989.1 +26.6
21 24.08 штиль 0 10 км ясно +16.3 +14.3 88 +16 +16 1024.0 988.7
00 25.08 штиль 0 10 км ясно +13.6 +12.8 95 +13 +13 1025.0 989.3
03 25.08 штиль 0 10 км ясно +11.6 +10.8 95 +11 +11 1024.0 988.1
06 25.08 штиль 0 10 км 3 балла +16.7 +14.3 86 +17 +20 1024.0 988.7 +10.8
09 25.08 СВ 2 10 км 3 балла +24.3 +13.8 52 +27 +35 жарко 1023.0 988.7
12 25.08 СВ 3 10 км 3 балла +28.4 +15.0 44 +31 +38 душно 1022.0 988.2

 

Местоположение метеостанции Коломыя (Ивано-Франковская область, Украина): широта 48.53 долгота 25.03 высота над уровнем моря 298 м.

В архиве по умолчанию представлена погода в Коломые за последнюю неделю. Архивные данные за месяц целиком и за предыдущие месяцы, начиная с января 2011 года, Вы можете получить, выбрав интересующий диапазон дат из раскрывающегося списка и нажав кнопку "Ввод!".


*Определитесь, кто Вы:
робот инопланетянин человек

Внимание! Время в таблицах - всемирное. Для получения местного времени необходимо прибавить поправку, которая равна 2 ч.

Смотрите также архив погоды в соседних городах и на ближайших метеорологических станциях:

Погода в Ивано-Франковске (Ивано-Франковская область, Украина) (55 км)
Погода в Ясине (Закарпатская область, Украина) (57 км)
Погода на Пожежевской (Ивано-Франковская область, Украина) (58 км)
Погода в Черновцах (Черновицкая область, Украина) (67 км)
Погода в Селятине (Черновицкая область, Украина) (75 км)
Погода в Рахове (Закарпатская область, Украина) (76 км)
Погода в Чорткове (Тернопольская область, Украина) (78 км)
Погода в Долине (Ивано-Франковская область, Украина) (90 км)
Погода в Бережанах (Львовская область, Украина) (100 км)
Погода в Рэдэуци (Румыния) (101 км)

Пояснения к столбцам:

Ветер - указаны скорость ветра в м/с - средняя за 10 мин, порывы в срок и между сроками (в фигурных скобках) и направление, откуда дует ветер: С - северный, СВ - северо-восточный, В - восточный, ЮВ - юго-восточный, Ю - южный, ЮЗ - юго-западный, З - западный, СЗ - северо-западный.
Видимость - горизонтальная дальность видимости в метрах или километрах. При видимости от 1 до 10 км при отсутствии осадков обычно наблюдается дымка, при ухудшении видимости до 1 км и менее - туман. В сухую погоду видимость может ухудшаться дымом, пылью или мглою.
Явления - указаны атмосферные явления, наблюдавшиеся в срок или в последний час перед сроком; фигурными скобками обозначены явления, наблюдавшиеся между сроками (за 1-3 часа до срока); квадратными скобками обозначены град или гололедные отложения с указанием их диаметра в мм.
Облачность - указаны через наклонную черту общая и нижняя облачность в баллах и высота нижней границы облаков в метрах; квадратными скобками обозначены формы облаков: Ci - перистые, Cs - перисто-слоистые, Cc - перисто-кучевые, Ac - высококучевые, As - высокослоистые, Sc - слоисто-кучевые, Ns - слоисто-дождевые, Cu - кучевые, Cb - кучево-дождевые. Подробнее классификацию облаков см. в Атласе облаков (PDF).
T - Температура воздуха - температура, измеренная на высоте 2 м над землей.
Td - Температура точки росы - температура, при понижении до которой содержащийся в воздухе водяной пар достигнет насыщения.
f - Относительная влажность воздуха - влажноcть воздуха, измеренная на высоте 2 м над землей.
Te - Эффективная температура - температура, которую ощущает одетый по сезону человек в тени. Характеристика душности погоды. При расчете учитывается влияние влажности воздуха и скорости ветра на теплоощущения человека.
Tes - Эффективная температура на солнце - температура, которую ощущает человек, с поправкой на солнечный нагрев. Характеристика знойности погоды. Зависит от высоты солнца над горизонтом, облачности и скорости ветра. Ночью, в пасмурную погоду, а также при ветре 12 м/с и более поправка равна нулю.
P - Атмосферное давление - приведенное к уровню моря атмосферное давление.
Po - Атмосферное давление - измеренное на уровне метеостанции атмосферное давление.
Tmin - Минимальная температура - минимум температуры воздуха на высоте 2 м над землей.
Tmax - Максимальная температура - максимум температуры воздуха на высоте 2 м над землей.
R - Количество осадков - Количество выпавших осадков за период времени, мм. При наведении курсора мыши на число - период времени, за который выпало указанное количество осадков.
R24 - Количество осадков - Количество выпавших осадков за 24 часа, мм.
S - Снежный покров - Высота снежного покрова, см. При наведении курсора мыши на число - состояние снежного покрова и степень покрытия местности в баллах.